G8LMY Weather Reports


time (UTC)temp
C
wind
direction
speed
KPH
gust
KPH
rain 1hr
cm
rain 24hr
cm
rain mn
cm
humidity
%
barometer
mb
20260510162524 13 82 11.3 27.4 0.00 0.00 0.00 60 1014.0
20260510161024 12 95 3.2 24.1 0.00 0.00 0.00 62 1014.2
20260510152524 12 72 8.0 24.1 0.00 0.00 0.00 65 1014.8
20260510151024 12 4 3.2 24.1 0.00 0.00 0.00 65 1014.9
20260510145524 12 0 3.2 24.1 0.00 0.00 0.00 65 1015.0
20260510144024 12 69 4.8 24.1 0.00 0.00 0.00 66 1015.1
20260510142524 12 99 1.6 24.1 0.00 0.00 0.00 67 1015.3
20260510141024 12 69 3.2 24.1 0.00 0.00 0.00 68 1015.3
20260510135524 12 59 8.0 24.1 0.00 0.00 0.00 68 1015.4
20260510134024 12 37 4.8 24.1 0.00 0.00 0.00 67 1015.5
20260510132524 12 12 4.8 24.1 0.00 0.00 0.00 67 1015.4
20260510131025 12 354 8.0 24.1 0.00 0.00 0.00 68 1015.5
20260510125524 12 20 4.8 24.1 0.00 0.00 0.00 70 1015.7
20260510124024 12 59 8.0 24.1 0.00 0.00 0.00 69 1015.8
20260510122523 12 39 1.6 24.1 0.00 0.00 0.00 70 1015.9
20260510121023 13 76 4.8 22.5 0.00 0.00 0.00 69 1016.0
20260510115523 13 42 4.8 22.5 0.00 0.00 0.00 67 1015.9
20260510114023 13 337 1.6 22.5 0.00 0.00 0.00 68 1016.0
20260510112523 13 31 8.0 22.5 0.00 0.00 0.00 65 1016.1
20260510111024 13 0 1.6 22.5 0.00 0.00 0.00 67 1016.2
20260510104023 13 62 3.2 22.5 0.00 0.00 0.00 69 1016.4
20260510102524 13 39 8.0 22.5 0.00 0.00 0.00 68 1016.5
20260510101024 13 12 8.0 22.5 0.00 0.00 0.00 67 1016.4
20260510095524 12 30 4.8 22.5 0.00 0.00 0.00 68 1016.6
20260510094023 12 101 9.7 22.5 0.00 0.00 0.00 69 1016.7
20260510091022 11 103 8.0 22.5 0.00 0.00 0.00 71 1016.9
20260510085522 11 21 9.7 20.9 0.00 0.00 0.00 72 1017.0
20260510082522 10 4 4.8 20.9 0.00 0.00 0.00 77 1017.2
20260510081024 10 49 4.8 20.9 0.00 0.00 0.00 77 1017.1
20260510075524 10 28 1.6 19.3 0.00 0.00 0.00 78 1017.3
20260510074024 10 33 3.2 19.3 0.00 0.00 0.00 79 1017.3
20260510072523 10 29 3.2 19.3 0.00 0.00 0.00 80 1017.2
20260510071023 10 35 3.2 19.3 0.00 0.00 0.00 81 1017.1
20260510065523 10 93 1.6 19.3 0.00 0.00 0.00 82 1017.0
20260510064023 9 52 9.7 19.3 0.00 0.00 0.00 82 1017.1
20260510062523 9 69 4.8 19.3 0.00 0.00 0.00 83 1017.0
20260510061024 9 12 3.2 19.3 0.00 0.00 0.00 84 1016.8
20260510055525 9 22 0.0 19.3 0.00 0.00 0.00 84 1016.8
20260510054024 8 18 1.6 19.3 0.00 0.00 0.00 85 1016.8
20260510052524 8 13 1.6 19.3 0.00 0.00 0.00 85 1016.9
20260510051024 8 28 1.6 19.3 0.00 0.00 0.00 85 1016.9
20260510045524 8 355 3.2 19.3 0.00 0.00 0.00 84 1016.9
20260510044024 8 348 1.6 19.3 0.00 0.00 0.00 85 1016.8
20260510042524 8 13 0.0 19.3 0.00 0.00 0.00 85 1016.8
20260510041024 8 88 0.0 19.3 0.00 0.00 0.00 85 1016.8
20260510035524 8 64 1.6 19.3 0.00 0.00 0.00 85 1017.0
20260510034024 8 4 1.6 19.3 0.00 0.00 0.00 85 1017.0
20260510032524 8 40 1.6 19.3 0.00 0.00 0.00 85 1017.1
20260510031024 8 60 1.6 19.3 0.00 0.00 0.00 85 1017.2
20260510025524 8 29 1.6 19.3 0.00 0.00 0.00 85 1017.1
20260510024024 9 84 3.2 19.3 0.00 0.00 0.00 84 1017.1
20260510022524 9 343 1.6 19.3 0.00 0.00 0.00 84 1017.1
20260510021024 9 11 3.2 19.3 0.00 0.00 0.00 83 1017.0
20260510015524 9 83 3.2 19.3 0.00 0.00 0.00 83 1016.9
20260510014024 9 27 1.6 19.3 0.00 0.00 0.00 82 1017.0
20260510012524 10 10 1.6 19.3 0.00 0.00 0.00 80 1017.2
20260510011024 10 334 1.6 19.3 0.00 0.00 0.00 77 1017.1
20260510005523 10 351 3.2 19.3 0.00 0.00 0.00 71 1017.0
20260510004023 10 17 3.2 19.3 0.00 0.00 0.00 65 1017.1
20260510002523 11 343 1.6 19.3 0.00 0.00 0.00 62 1017.1
20260510001023 11 56 1.6 19.3 0.00 0.00 0.00 63 1017.1
20260509235523 11 61 3.2 19.3 0.00 0.00 0.00 62 1017.0
20260509234023 12 10 3.2 14.5 0.00 0.00 0.00 60 1016.9
20260509232523 12 76 3.2 14.5 0.00 0.00 0.00 59 1016.8
20260509231023 12 43 3.2 8.0 0.00 0.00 0.00 57 1016.8
20260509225523 12 46 1.6 19.3 0.00 0.00 0.00 58 1016.7
20260509224024 12 75 0.0 19.3 0.00 0.00 0.00 58 1016.6
20260509222523 12 60 0.0 19.3 0.00 0.00 0.00 57 1016.7
20260509221023 12 62 0.0 19.3 0.00 0.00 0.00 56 1016.6
20260509215523 12 98 0.0 19.3 0.00 0.00 0.00 55 1016.6
20260509214023 12 101 0.0 19.3 0.00 0.00 0.00 54 1016.8
20260509212524 13 101 0.0 19.3 0.00 0.00 0.00 53 1016.7
20260509211024 13 98 0.0 19.3 0.00 0.00 0.00 53 1016.4
20260509205524 13 127 1.6 19.3 0.00 0.00 0.00 53 1016.3
20260509204023 14 91 0.0 19.3 0.00 0.00 0.00 53 1016.2
20260509202524 14 105 0.0 19.3 0.00 0.00 0.00 52 1016.2
20260509201024 15 86 0.0 19.3 0.00 0.00 0.00 52 1016.0
20260509195524 15 86 0.0 19.3 0.00 0.00 0.00 50 1015.8
20260509194024 16 84 0.0 19.3 0.00 0.00 0.00 48 1015.8
20260509192524 16 84 0.0 19.3 0.00 0.00 0.00 48 1015.6
20260509191024 16 142 0.0 19.3 0.00 0.00 0.00 46 1015.5
20260509185523 17 88 0.0 19.3 0.00 0.00 0.00 46 1015.4
20260509184024 17 188 0.0 19.3 0.00 0.00 0.00 44 1015.4
20260509182524 18 84 0.0 19.3 0.00 0.00 0.00 43 1015.1
20260509181024 18 104 0.0 19.3 0.00 0.00 0.00 42 1015.1
20260509175524 19 105 1.6 19.3 0.00 0.00 0.00 43 1015.0
20260509174024 19 181 0.0 19.3 0.00 0.00 0.00 41 1014.8
20260509172524 20 186 0.0 19.3 0.00 0.00 0.00 41 1014.7
20260509171024 20 101 0.0 19.3 0.00 0.00 0.00 38 1014.8
20260509165524 21 101 0.0 19.3 0.00 0.00 0.00 37 1014.9
20260509164024 22 24 0.0 19.3 0.00 0.00 0.00 36 1014.8